星链-32647 (STARLINK-32647)

导读

STARLINK-32647是美国SpaceX公司于2024年12月4日发射的星链低轨道通信卫星,属于全球规模最大的近地轨道卫星星座星链(Starlink)的组成部分。星链项目旨在为全球尤其是基础设施匮乏地区提供高速低延迟宽带互联网服务,STARLINK-32647的入轨进一步扩充了星链星座网络容量,助力提升全球网络覆盖能力,推动星链在偏远地区接入、特殊场景通信等领域的服务能力,也延续了SpaceX快速推进星链星座部署的节奏。

Basic Information
目录编号:
62200
目录名称:
STARLINK-32647
国际标识:
2024-229J
轨道中心:
EARTH
卫星名称:
星链-32647
卫星全名:
星链-32647 (STARLINK-32647)
卫星状态:
在轨 (已飞行640 天)
发射日期:
2024-12-04 UTC
国别 :
美国 (US)
星等 :
--
Orbit Information
数据来源 国际轨道数据
星历时间: 2026-09-05T14:18:37+0800
13小时前
查看轨道信息
半长轴: 6861.122km
偏心率: 0.0001481
轨道倾角: 43.002°
近地点辐角 266.073°
升交点赤经 336.677°
平近点角 93.996°
近地点: 481.968km
远地点: 484.002km
周期: 94.265分钟
每日圈数: 15.276017
Detailed Information
固有亮度:
5
最大亮度:
2.5
卫星平台:
Starlink V1.0
覆盖范围:
全球
运营商:
太空探索技术公司
运营商所在国:
美国
制造商(研发单位):
太空探索技术公司
制造商所在国:
美国
使用方式:
暂无
Satellite Introduction
Starlink 计划是 SpaceX 推出的全球卫星互联网项目,通过发射低轨道卫星,为全球尤其是偏远地区提供高速、低延迟的互联网服务。自 2019 年起,Starlink 已部署数千颗卫星,旨在缩小全球数字鸿沟,推动互联网普及。该项目还为军事、航空等行业提供通信支持,带来广泛经济效益。
2D Orbit Map
3D Orbit Map
Orbit Altitude Analysis Chart
Orbit Inclination Analysis Chart
Orbit Comprehensive Analysis Chart
View Comprehensive Chart
Conjunction Data List
Event ID Objects TCA Miss Dist (km) Collision Risk Probability Collision Risk Index (CRI) Action
CDM_260907-084905-651106-220021
2026-09-07T
08:49:12+0000
0.436 km
远距离
1.513602E-4 高风险 0.79
CDM_260907-170305-600306-220021
2026-09-07T
17:03:52+0000
0.719 km
远距离
6.08658E-5 中风险 0.71
CDM_260908-022605-601106-220021
2026-09-08T
02:26:22+0000
0.722 km
远距离
5.831724E-5 中风险 0.7
CDM_260907-014505-651106-220021
2026-09-07T
01:45:30+0000
0.739 km
远距离
3.531171E-5 中风险 0.66
CDM_260908-073505-930906-220021
2026-09-08T
07:35:58+0000
0.829 km
远距离
2.00844E-5 中风险 0.61
CDM_260908-040005-601106-220021
2026-09-08T
04:00:31+0000
1.871 km
极远距离
2.589502E-6 低风险 0.43
CDM_260907-183805-600306-220021
2026-09-07T
18:38:01+0000
2.018 km
极远距离
2.190879E-6 低风险 0.42
CDM_260907-001105-651106-220021
2026-09-07T
00:11:21+0000
1.742 km
极远距离
2.111215E-6 低风险 0.41
CDM_260907-152905-600306-220021
2026-09-07T
15:29:43+0000
2.779 km
极远距离
1.18291E-6 低风险 0.36
CDM_260907-071505-651106-220021
2026-09-07T
07:15:03+0000
2.393 km
极远距离
1.018854E-6 低风险 0.35